Regional Weather Roundup
Issued by NWS

Home | Current Version | Previous Version | Graphics & Text | Print | Product List | Glossary On
Versions: 1 2 3 4 5 6 7 8 9 10 11 12 13 14 15 16 17 18 19 20 21 22 23 24 25 26 27 28 29 30 31 32 33 34 35 36 37 38 39 40 41 42 43 44 45 46 47 48 49 50
000
ASUS45 KSLC 020510
RWRUT

UTAH REGIONAL WEATHER ROUNDUP
NATIONAL WEATHER SERVICE SALT LAKE CITY UT
1100 PM MDT MON JUN 01 2015

UTZ001>011-023>025-020600-

NORTHERN UTAH

CITY           SKY/WX    TMP DP  RH WIND       PRES   REMARKS
BRIGHAM CITY   PTCLDY    62  46  54 SW3       29.90R
HILL AFB       PTCLDY    67  38  34 E9        29.91R
LOGAN          CLEAR     57  49  74 CALM      29.93S
OGDEN          PTCLDY    66  42  41 W8        29.89R
PROVO AIRPORT  PTCLDY    68  48  49 N6        29.90R
SALT LAKE CITY PTCLDY    66  47  50 W5        29.88R
VERNAL         PTCLDY    67  38  34 CALM      29.92R
WENDOVER       PTCLDY    70  39  32 N16       29.91R
HEBER CITY     PTCLDY    68  27  21 SW12G17   29.95R
WEST JORDAN    CLEAR     68  37  32 W8        29.90S

$$

UTZ012>022-026-027-020600-

SOUTHERN/CENTRAL UTAH

CITY           SKY/WX    TMP DP  RH WIND       PRES   REMARKS
BLANDING       PTCLDY    67  18  15 CALM      30.12R
BRYCE CANYON   PTCLDY    42  28  57 SW6       30.20R
CEDAR CITY     CLEAR     64  26  23 S7        30.04R
DELTA          CLEAR     71  24  17 S13       29.92R
HANKSVILLE     MOCLDY    79  23  12 SW9       29.92R
MILFORD        PTCLDY    63  32  31 SW13      29.97R
MOAB/CYNLANDS  CLEAR     75  20  12 SW14      29.88R
PRICE          PTCLDY    73  22  14 W8        29.99R
ST GEORGE      PTCLDY    82  21  10 SW3       29.89R
KANAB          PTCLDY    72  25  17 SW10      30.05R

$$

REGIONAL REPORTS     COLORADO/ARIZONA

CITY           SKY/WX    TMP DP  RH WIND       PRES   REMARKS
CRAIG, CO      PTCLDY    61  45  55 SE6       30.01R
GRAND JUNCTION CLEAR     62  31  31 CALM      29.91R
RIFLE          PTCLDY    66  39  37 E12       29.98R
MONTROSE       CLEAR     66  37  34 SE9       30.04R
CORTEZ         CLEAR     70  20  15 S10       30.08R
PAGE, AZ       MOCLDY    84  16   8 SW8       29.95R
GRAND CANYON   MOCLDY    51  25  36 CALM      30.18R
KINGMAN        PTCLDY    75  16  10 S10       29.96R
FLAGSTAFF      MOCLDY    57  25  29 W3        30.23S

$$

REGIONAL REPORTS    NEVADA/IDAHO/WYOMING

CITY           SKY/WX    TMP DP  RH WIND       PRES   REMARKS
LAS VEGAS, NV  PTCLDY    86  21   9 SW21G30   29.79R
ELY            PTCLDY    62  29  28 S9        30.01R
ELKO           CLEAR     59  32  36 VRB3      29.95R
POCATELLO, ID  CLEAR     53  52  96 N5        29.93S
BURLEY         CLEAR     55  49  80 SE3       29.88S
EVANSTON, WY   PTCLDY    52  39  61 NW9       30.09S
ROCK SPRINGS   MOCLDY    55  38  52 N14       30.07R
KEMMERER       PTCLDY    50  36  57 N12       30.08F

$$



USA.gov is the U.S. government's official web portal to all federal, state and local government web resources and services.